����������;��������(kVARh)
2019-01-21 00:00;0
2019-01-21 00:15;0
2019-01-21 00:30;0
2019-01-21 00:45;0
2019-01-21 01:00;0
2019-01-21 01:15;0
2019-01-21 01:30;0
2019-01-21 01:45;0
2019-01-21 02:00;0
2019-01-21 02:15;0
2019-01-21 02:30;0
2019-01-21 02:45;0
2019-01-21 03:00;0
2019-01-21 03:15;2,45
2019-01-21 03:30;4,25
2019-01-21 03:45;4,8
2019-01-21 04:00;6,05
2019-01-21 04:15;4,15
2019-01-21 04:30;4,7
2019-01-21 04:45;4,7
2019-01-21 05:00;5,1
2019-01-21 05:15;6
2019-01-21 05:30;12,2
2019-01-21 05:45;21,4
2019-01-21 06:00;18,95
2019-01-21 06:15;18,5
2019-01-21 06:30;16,3
2019-01-21 06:45;12,65
2019-01-21 07:00;15,7
2019-01-21 07:15;19,3
2019-01-21 07:30;47,35
2019-01-21 07:45;55,85
2019-01-21 08:00;59,1
2019-01-21 08:15;42,55
2019-01-21 08:30;41,45
2019-01-21 08:45;61,8
2019-01-21 09:00;48,4
2019-01-21 09:15;59,45
2019-01-21 09:30;55,5
2019-01-21 09:45;60,55
2019-01-21 10:00;61,35
2019-01-21 10:15;68,9
2019-01-21 10:30;63,5
2019-01-21 10:45;74,55
2019-01-21 11:00;80,55
2019-01-21 11:15;86,35
2019-01-21 11:30;80,8
2019-01-21 11:45;84,75
2019-01-21 12:00;83,1
2019-01-21 12:15;92
2019-01-21 12:30;76,05
2019-01-21 12:45;78,35
2019-01-21 13:00;82,45
2019-01-21 13:15;78,75
2019-01-21 13:30;72,8
2019-01-21 13:45;76,8
2019-01-21 14:00;79,1
2019-01-21 14:15;74,4
2019-01-21 14:30;74,75
2019-01-21 14:45;74,55
2019-01-21 15:00;93,95
2019-01-21 15:15;70,05
2019-01-21 15:30;80,1
2019-01-21 15:45;79,45
2019-01-21 16:00;70,3
2019-01-21 16:15;67,05
2019-01-21 16:30;58,8
2019-01-21 16:45;66,3
2019-01-21 17:00;55,55
2019-01-21 17:15;43,3
2019-01-21 17:30;46,05
2019-01-21 17:45;37,75
2019-01-21 18:00;37
2019-01-21 18:15;34,1
2019-01-21 18:30;29,4
2019-01-21 18:45;29,85
2019-01-21 19:00;28,1
2019-01-21 19:15;21,95
2019-01-21 19:30;16,8
2019-01-21 19:45;12,9
2019-01-21 20:00;14,65
2019-01-21 20:15;12,7
2019-01-21 20:30;10,95
2019-01-21 20:45;8,3
2019-01-21 21:00;4,7
2019-01-21 21:15;4,95
2019-01-21 21:30;5,7
2019-01-21 21:45;5,55
2019-01-21 22:00;5,55
2019-01-21 22:15;4,95
2019-01-21 22:30;3,6
2019-01-21 22:45;1,3
2019-01-21 23:00;0,55
2019-01-21 23:15;0,1
2019-01-21 23:30;0,05
2019-01-21 23:45;0
2019-01-22 00:00;0
2019-01-22 00:15;0
2019-01-22 00:30;0
2019-01-22 00:45;0
2019-01-22 01:00;0
2019-01-22 01:15;0
2019-01-22 01:30;0
2019-01-22 01:45;0
2019-01-22 02:00;0
2019-01-22 02:15;0
2019-01-22 02:30;0
2019-01-22 02:45;0
2019-01-22 03:00;0
2019-01-22 03:15;0
2019-01-22 03:30;0
2019-01-22 03:45;0
2019-01-22 04:00;0,2
2019-01-22 04:15;5,3
2019-01-22 04:30;7,05
2019-01-22 04:45;7,3
2019-01-22 05:00;9,15
2019-01-22 05:15;8,15
2019-01-22 05:30;7,9
2019-01-22 05:45;15,05
2019-01-22 06:00;28,6
2019-01-22 06:15;28,3
2019-01-22 06:30;26,35
2019-01-22 06:45;26,95
2019-01-22 07:00;22,7
2019-01-22 07:15;21,75
2019-01-22 07:30;42,75
2019-01-22 07:45;47,25
2019-01-22 08:00;27,25
2019-01-22 08:15;32,65
2019-01-22 08:30;37,3
2019-01-22 08:45;37,1
2019-01-22 09:00;56,3
2019-01-22 09:15;45,35
2019-01-22 09:30;51,65
2019-01-22 09:45;45,15
2019-01-22 10:00;63,15
2019-01-22 10:15;52,75
2019-01-22 10:30;65,4
2019-01-22 10:45;69,3
2019-01-22 11:00;81
2019-01-22 11:15;71,5
2019-01-22 11:30;74,7
2019-01-22 11:45;63,8
2019-01-22 12:00;65,1
2019-01-22 12:15;78,2
2019-01-22 12:30;65,6
2019-01-22 12:45;68,8
2019-01-22 13:00;64,8
2019-01-22 13:15;71,7
2019-01-22 13:30;66,1
2019-01-22 13:45;64,35
2019-01-22 14:00;68,85
2019-01-22 14:15;64,6
2019-01-22 14:30;68,95
2019-01-22 14:45;60,4
2019-01-22 15:00;57,35
2019-01-22 15:15;57,65
2019-01-22 15:30;57,55
2019-01-22 15:45;56,1
2019-01-22 16:00;56,4
2019-01-22 16:15;47,05
2019-01-22 16:30;52,2
2019-01-22 16:45;57,75
2019-01-22 17:00;45
2019-01-22 17:15;46,3
2019-01-22 17:30;29,9
2019-01-22 17:45;33,35
2019-01-22 18:00;33,85
2019-01-22 18:15;26,55
2019-01-22 18:30;28,35
2019-01-22 18:45;31,1
2019-01-22 19:00;28
2019-01-22 19:15;25,9
2019-01-22 19:30;27,4
2019-01-22 19:45;25,65
2019-01-22 20:00;23,3
2019-01-22 20:15;23,05
2019-01-22 20:30;23,3
2019-01-22 20:45;20,95
2019-01-22 21:00;19,15
2019-01-22 21:15;19,2
2019-01-22 21:30;17,1
2019-01-22 21:45;15,3
2019-01-22 22:00;16,5
2019-01-22 22:15;14,95
2019-01-22 22:30;10,85
2019-01-22 22:45;10,2
2019-01-22 23:00;7,9
2019-01-22 23:15;2,3
2019-01-22 23:30;0,25
2019-01-22 23:45;0,35
2019-01-23 00:00;0
2019-01-23 00:15;0
2019-01-23 00:30;0
2019-01-23 00:45;0
2019-01-23 01:00;3,2
2019-01-23 01:15;7,5
2019-01-23 01:30;9,2
2019-01-23 01:45;7,85
2019-01-23 02:00;8,1
2019-01-23 02:15;13,15
2019-01-23 02:30;12,1
2019-01-23 02:45;10,7
2019-01-23 03:00;10,6
2019-01-23 03:15;12,7
2019-01-23 03:30;12,95
2019-01-23 03:45;14,05
2019-01-23 04:00;11,95
2019-01-23 04:15;12,45
2019-01-23 04:30;10
2019-01-23 04:45;13,4
2019-01-23 05:00;14,65
2019-01-23 05:15;12,65
2019-01-23 05:30;11,9
2019-01-23 05:45;11,1
2019-01-23 06:00;12,6
2019-01-23 06:15;17,7
2019-01-23 06:30;26,25
2019-01-23 06:45;28,2
2019-01-23 07:00;28,95
2019-01-23 07:15;32,15
2019-01-23 07:30;55,1
2019-01-23 07:45;65,05
2019-01-23 08:00;39,6
2019-01-23 08:15;33,9
2019-01-23 08:30;42,4
2019-01-23 08:45;39,6
2019-01-23 09:00;51,1
2019-01-23 09:15;44,6
2019-01-23 09:30;58,35
2019-01-23 09:45;51,15
2019-01-23 10:00;67,2
2019-01-23 10:15;56,05
2019-01-23 10:30;70,55
2019-01-23 10:45;69,95
2019-01-23 11:00;81,75
2019-01-23 11:15;72,05
2019-01-23 11:30;76,05
2019-01-23 11:45;77,6
2019-01-23 12:00;74,85
2019-01-23 12:15;67
2019-01-23 12:30;63,45
2019-01-23 12:45;75,45
2019-01-23 13:00;64,55
2019-01-23 13:15;66,75
2019-01-23 13:30;73,85
2019-01-23 13:45;66,05
2019-01-23 14:00;67,7
2019-01-23 14:15;71,15
2019-01-23 14:30;70,5
2019-01-23 14:45;72,6
2019-01-23 15:00;63,55
2019-01-23 15:15;56,55
2019-01-23 15:30;67,3
2019-01-23 15:45;49,25
2019-01-23 16:00;56,1
2019-01-23 16:15;49,15
2019-01-23 16:30;59,95
2019-01-23 16:45;46,6
2019-01-23 17:00;42,05
2019-01-23 17:15;50,7
2019-01-23 17:30;34,1
2019-01-23 17:45;31,2
2019-01-23 18:00;33,2
2019-01-23 18:15;29,1
2019-01-23 18:30;31,3
2019-01-23 18:45;31,8
2019-01-23 19:00;30,9
2019-01-23 19:15;31,4
2019-01-23 19:30;30,9
2019-01-23 19:45;30,45
2019-01-23 20:00;25,95
2019-01-23 20:15;18,5
2019-01-23 20:30;16,05
2019-01-23 20:45;15,15
2019-01-23 21:00;15,95
2019-01-23 21:15;17,75
2019-01-23 21:30;14,9
2019-01-23 21:45;11,95
2019-01-23 22:00;10,8
2019-01-23 22:15;7,95
2019-01-23 22:30;2
2019-01-23 22:45;0,35
2019-01-23 23:00;1,05
2019-01-23 23:15;0,3
2019-01-23 23:30;0,75
2019-01-23 23:45;0
2019-01-24 00:00;0
2019-01-24 00:15;0
2019-01-24 00:30;0
2019-01-24 00:45;0
2019-01-24 01:00;0
2019-01-24 01:15;0
2019-01-24 01:30;5,15
2019-01-24 01:45;5,85
2019-01-24 02:00;5,9
2019-01-24 02:15;6,35
2019-01-24 02:30;7,4
2019-01-24 02:45;6,1
2019-01-24 03:00;4,8
2019-01-24 03:15;3,5
2019-01-24 03:30;0,4
2019-01-24 03:45;0,1
2019-01-24 04:00;1,6
2019-01-24 04:15;1,6
2019-01-24 04:30;0,3
2019-01-24 04:45;0,8
2019-01-24 05:00;2,7
2019-01-24 05:15;1,45
2019-01-24 05:30;2,3
2019-01-24 05:45;1,6
2019-01-24 06:00;0,15
2019-01-24 06:15;1
2019-01-24 06:30;0,45
2019-01-24 06:45;9,05
2019-01-24 07:00;20,15
2019-01-24 07:15;19,65
2019-01-24 07:30;57,9
2019-01-24 07:45;65,55
2019-01-24 08:00;37,4
2019-01-24 08:15;25,8
2019-01-24 08:30;44,55
2019-01-24 08:45;34,5
2019-01-24 09:00;41,35
2019-01-24 09:15;42,6
2019-01-24 09:30;58,25
2019-01-24 09:45;54,6
2019-01-24 10:00;57,8
2019-01-24 10:15;59
2019-01-24 10:30;62,85
2019-01-24 10:45;65,3
2019-01-24 11:00;66,55
2019-01-24 11:15;73,9
2019-01-24 11:30;72,65
2019-01-24 11:45;83,55
2019-01-24 12:00;70,2
2019-01-24 12:15;72,05
2019-01-24 12:30;70,05
2019-01-24 12:45;77,25
2019-01-24 13:00;67,2
2019-01-24 13:15;70,95
2019-01-24 13:30;85,75
2019-01-24 13:45;68,75
2019-01-24 14:00;70,9
2019-01-24 14:15;82,5
2019-01-24 14:30;73,35
2019-01-24 14:45;73,8
2019-01-24 15:00;62,95
2019-01-24 15:15;63,95
2019-01-24 15:30;67,95
2019-01-24 15:45;54,8
2019-01-24 16:00;66,65
2019-01-24 16:15;60,85
2019-01-24 16:30;50,9
2019-01-24 16:45;56,7
2019-01-24 17:00;50,9
2019-01-24 17:15;57,55
2019-01-24 17:30;37,3
2019-01-24 17:45;38,65
2019-01-24 18:00;34,2
2019-01-24 18:15;30,1
2019-01-24 18:30;27,45
2019-01-24 18:45;20,65
2019-01-24 19:00;21,85
2019-01-24 19:15;21,65
2019-01-24 19:30;19,25
2019-01-24 19:45;18,85
2019-01-24 20:00;19
2019-01-24 20:15;17,9
2019-01-24 20:30;9,45
2019-01-24 20:45;6,9
2019-01-24 21:00;6,9
2019-01-24 21:15;7,85
2019-01-24 21:30;6,5
2019-01-24 21:45;2,15
2019-01-24 22:00;3,3
2019-01-24 22:15;3,5
2019-01-24 22:30;6,4
2019-01-24 22:45;8,1
2019-01-24 23:00;9,5
2019-01-24 23:15;3,1
2019-01-24 23:30;5
2019-01-24 23:45;0,55
2019-01-25 00:00;0
2019-01-25 00:15;0
2019-01-25 00:30;0
2019-01-25 00:45;0
2019-01-25 01:00;0
2019-01-25 01:15;0
2019-01-25 01:30;0
2019-01-25 01:45;0
2019-01-25 02:00;5,4
2019-01-25 02:15;9,5
2019-01-25 02:30;9,7
2019-01-25 02:45;10,4
2019-01-25 03:00;11,95
2019-01-25 03:15;11,05
2019-01-25 03:30;8,4
2019-01-25 03:45;20,1
2019-01-25 04:00;27,3
2019-01-25 04:15;26,2
2019-01-25 04:30;22,05
2019-01-25 04:45;27,45
2019-01-25 05:00;25,5
2019-01-25 05:15;22,15
2019-01-25 05:30;21,3
2019-01-25 05:45;21,65
2019-01-25 06:00;21,55
2019-01-25 06:15;20,75
2019-01-25 06:30;19,6
2019-01-25 06:45;16,9
2019-01-25 07:00;16,15
2019-01-25 07:15;17,35
2019-01-25 07:30;50,35
2019-01-25 07:45;54,2
2019-01-25 08:00;23,8
2019-01-25 08:15;26,55
2019-01-25 08:30;39,3
2019-01-25 08:45;28,5
2019-01-25 09:00;41,45
2019-01-25 09:15;38
2019-01-25 09:30;49,15
2019-01-25 09:45;45,2
2019-01-25 10:00;48,5
2019-01-25 10:15;53,55
2019-01-25 10:30;48,2
2019-01-25 10:45;61,45
2019-01-25 11:00;64,6
2019-01-25 11:15;64,9
2019-01-25 11:30;68,7
2019-01-25 11:45;65,8
2019-01-25 12:00;75,65
2019-01-25 12:15;65,25
2019-01-25 12:30;65,45
2019-01-25 12:45;76,05
2019-01-25 13:00;68,65
2019-01-25 13:15;82,65
2019-01-25 13:30;76,55
2019-01-25 13:45;70,7
2019-01-25 14:00;65,85
2019-01-25 14:15;68,55
2019-01-25 14:30;69,35
2019-01-25 14:45;69,95
2019-01-25 15:00;64,7
2019-01-25 15:15;66,35
2019-01-25 15:30;98,1
2019-01-25 15:45;70,4
2019-01-25 16:00;65,9
2019-01-25 16:15;60,7
2019-01-25 16:30;72,45
2019-01-25 16:45;50,05
2019-01-25 17:00;55,2
2019-01-25 17:15;57,4
2019-01-25 17:30;49,85
2019-01-25 17:45;40,75
2019-01-25 18:00;42,8
2019-01-25 18:15;31,25
2019-01-25 18:30;32,05
2019-01-25 18:45;31,4
2019-01-25 19:00;26,15
2019-01-25 19:15;25,25
2019-01-25 19:30;22
2019-01-25 19:45;21,2
2019-01-25 20:00;22,75
2019-01-25 20:15;19,55
2019-01-25 20:30;16,8
2019-01-25 20:45;17,15
2019-01-25 21:00;17,95
2019-01-25 21:15;19,2
2019-01-25 21:30;18,1
2019-01-25 21:45;14,1
2019-01-25 22:00;8,8
2019-01-25 22:15;10,5
2019-01-25 22:30;4,3
2019-01-25 22:45;1,85
2019-01-25 23:00;3,4
2019-01-25 23:15;1,1
2019-01-25 23:30;0,35
2019-01-25 23:45;0,6
2019-01-26 00:00;0
2019-01-26 00:15;0
2019-01-26 00:30;0
2019-01-26 00:45;0
2019-01-26 01:00;0
2019-01-26 01:15;0
2019-01-26 01:30;0
2019-01-26 01:45;0
2019-01-26 02:00;0
2019-01-26 02:15;0
2019-01-26 02:30;0
2019-01-26 02:45;0
2019-01-26 03:00;0
2019-01-26 03:15;0
2019-01-26 03:30;0
2019-01-26 03:45;0
2019-01-26 04:00;0
2019-01-26 04:15;0
2019-01-26 04:30;0,2
2019-01-26 04:45;0,3
2019-01-26 05:00;0,25
2019-01-26 05:15;0,35
2019-01-26 05:30;0,4
2019-01-26 05:45;1,15
2019-01-26 06:00;0,15
2019-01-26 06:15;0,15
2019-01-26 06:30;0,05
2019-01-26 06:45;0,25
2019-01-26 07:00;0,05
2019-01-26 07:15;0,7
2019-01-26 07:30;0,2
2019-01-26 07:45;0
2019-01-26 08:00;0
2019-01-26 08:15;0,85
2019-01-26 08:30;2
2019-01-26 08:45;2,25
2019-01-26 09:00;0,65
2019-01-26 09:15;0,1
2019-01-26 09:30;2,15
2019-01-26 09:45;2,15
2019-01-26 10:00;4,25
2019-01-26 10:15;4,4
2019-01-26 10:30;4,05
2019-01-26 10:45;5,3
2019-01-26 11:00;8,3
2019-01-26 11:15;8,15
2019-01-26 11:30;11
2019-01-26 11:45;10,4
2019-01-26 12:00;10,6
2019-01-26 12:15;11,2
2019-01-26 12:30;13,8
2019-01-26 12:45;14,6
2019-01-26 13:00;16,6
2019-01-26 13:15;16,55
2019-01-26 13:30;15,1
2019-01-26 13:45;17,35
2019-01-26 14:00;19,6
2019-01-26 14:15;22,1
2019-01-26 14:30;20,45
2019-01-26 14:45;21,05
2019-01-26 15:00;21,4
2019-01-26 15:15;23,8
2019-01-26 15:30;24,55
2019-01-26 15:45;26,85
2019-01-26 16:00;24,45
2019-01-26 16:15;23,85
2019-01-26 16:30;21,2
2019-01-26 16:45;17,85
2019-01-26 17:00;17,25
2019-01-26 17:15;17,1
2019-01-26 17:30;15,3
2019-01-26 17:45;10,1
2019-01-26 18:00;7,75
2019-01-26 18:15;7,05
2019-01-26 18:30;8,2
2019-01-26 18:45;13,4
2019-01-26 19:00;15
2019-01-26 19:15;13,1
2019-01-26 19:30;13,25
2019-01-26 19:45;13,65
2019-01-26 20:00;12,25
2019-01-26 20:15;10,55
2019-01-26 20:30;11,15
2019-01-26 20:45;12,5
2019-01-26 21:00;12,35
2019-01-26 21:15;12,45
2019-01-26 21:30;12,25
2019-01-26 21:45;13,45
2019-01-26 22:00;10,65
2019-01-26 22:15;8,55
2019-01-26 22:30;7,8
2019-01-26 22:45;5,15
2019-01-26 23:00;5,45
2019-01-26 23:15;0,1
2019-01-26 23:30;0,15
2019-01-26 23:45;0
2019-01-27 00:00;0
2019-01-27 00:15;0,05
2019-01-27 00:30;0,15
2019-01-27 00:45;0
2019-01-27 01:00;0
2019-01-27 01:15;0
2019-01-27 01:30;0
2019-01-27 01:45;0,1
2019-01-27 02:00;0
2019-01-27 02:15;0
2019-01-27 02:30;0
2019-01-27 02:45;0
2019-01-27 03:00;0
2019-01-27 03:15;0,3
2019-01-27 03:30;0
2019-01-27 03:45;0,25
2019-01-27 04:00;0,05
2019-01-27 04:15;0
2019-01-27 04:30;0,05
2019-01-27 04:45;0,55
2019-01-27 05:00;1
2019-01-27 05:15;0,8
2019-01-27 05:30;0,3
2019-01-27 05:45;0,2
2019-01-27 06:00;0,8
2019-01-27 06:15;0,15
2019-01-27 06:30;0,3
2019-01-27 06:45;0,5
2019-01-27 07:00;0
2019-01-27 07:15;0
2019-01-27 07:30;0,05
2019-01-27 07:45;0
2019-01-27 08:00;0,05
2019-01-27 08:15;0
2019-01-27 08:30;0,35
2019-01-27 08:45;0
2019-01-27 09:00;0,25
2019-01-27 09:15;0,25
2019-01-27 09:30;0,2
2019-01-27 09:45;0,25
2019-01-27 10:00;0,15
2019-01-27 10:15;0
2019-01-27 10:30;0,1
2019-01-27 10:45;0
2019-01-27 11:00;0
2019-01-27 11:15;0,05
2019-01-27 11:30;1,05
2019-01-27 11:45;2,2
2019-01-27 12:00;1,2
2019-01-27 12:15;1,05
2019-01-27 12:30;1,45
2019-01-27 12:45;2,8
2019-01-27 13:00;3,3
2019-01-27 13:15;0,6
2019-01-27 13:30;2,1
2019-01-27 13:45;0,95
2019-01-27 14:00;1,9
2019-01-27 14:15;3,95
2019-01-27 14:30;4,1
2019-01-27 14:45;5,6
2019-01-27 15:00;6,8
2019-01-27 15:15;7,1
2019-01-27 15:30;7,7
2019-01-27 15:45;9
2019-01-27 16:00;13,55
2019-01-27 16:15;12
2019-01-27 16:30;11,8
2019-01-27 16:45;12
2019-01-27 17:00;9,6
2019-01-27 17:15;8
2019-01-27 17:30;6,4
2019-01-27 17:45;6,15
2019-01-27 18:00;4,9
2019-01-27 18:15;4,75
2019-01-27 18:30;4,25
2019-01-27 18:45;5,35
2019-01-27 19:00;3,9
2019-01-27 19:15;6,45
2019-01-27 19:30;7,05
2019-01-27 19:45;6,9
2019-01-27 20:00;6,75
2019-01-27 20:15;6,1
2019-01-27 20:30;4,45
2019-01-27 20:45;3,95
2019-01-27 21:00;4,25
2019-01-27 21:15;4,45
2019-01-27 21:30;2,25
2019-01-27 21:45;0,15
2019-01-27 22:00;1,1
2019-01-27 22:15;1,4
2019-01-27 22:30;2,5
2019-01-27 22:45;2,2
2019-01-27 23:00;5,1
2019-01-27 23:15;5,05
2019-01-27 23:30;7,15
2019-01-27 23:45;3,05

